Weather History for Nogales, AZ

Change the Weather History Date:

Sunday, February 17, 2013

  Actual Average (KTUS) Record (KTUS)
Temperature  
Mean Temperature 51 °F 56 °F  
Max Temperature 69 °F 69 °F 86 °F (2014)
Min Temperature 33 °F 42 °F 19 °F (1910)
Degree Days  
Heating Degree Days 14 10  
Month to date heating degree days 178  
Since 1 July heating degree days 1172  
Cooling Degree Days 0 0  
Month to date cooling degree days 0  
Year to date cooling degree days 1  
Growing Degree Days 1 (Base 50)    
Moisture  
Dew Point 8 °F    
Average Humidity 22    
Maximum Humidity 46    
Minimum Humidity 6    
Precipitation  
Precipitation 0.00 in 0.04 in 0.69 in (1998)
Month to date precipitation 0.54  
Year to date precipitation 1.48  
Sea Level Pressure  
Sea Level Pressure 29.90 in    
Wind  
Wind Speed 5 mph (South)    
Max Wind Speed 17 mph    
Max Gust Speed 26 mph    
Visibility 10 miles    
Events      
T = Trace of Precipitation, MM = Missing Value Source: NWS Daily Summary

Daily Weather History Graph

Daily Weather History Graph

Search for Another Location

Airport:

Trip Planner

Search our weather history database for the weather conditions in past years. The results will help you decide how hot, cold, wet, or windy it might be!

Date:

Astronomy

Feb. 17, 2013 Rise Set
Actual Time 7:02 AM MST 6:12 PM MST
Civil Twilight 6:37 AM MST 6:37 PM MST
Nautical Twilight 6:09 AM MST 7:05 PM MST
Astronomical Twilight 5:41 AM MST 7:33 PM MST
Moon 11:28 AM MST (2/17) 12:42 AM MST (2/17)
Length of Visible Light 11h 59m
Length of Day
11h 09m
Waxing Crescent, 49% of the Moon is Illuminated
Feb 17
Waxing Crescent
Feb 17
First Quarter
Feb 25
Full
Mar 4
Last Quarter
Mar 11
New

Hourly Weather History & Observations

Time (MST) Temp. Windchill Dew Point Humidity Pressure Visibility Wind Dir Wind Speed Gust Speed Precip Events Conditions
12:54 AM 41.0 °F 36.4 °F 10.9 °F 29% 29.96 in 10.0 mi ENE 6.9 mph - N/A   Clear
1:54 AM 41.0 °F - 10.9 °F 29% 29.95 in 10.0 mi Calm Calm - N/A   Clear
2:54 AM 35.1 °F - 12.9 °F 40% 29.93 in 10.0 mi Calm Calm - N/A   Clear
3:54 AM 35.1 °F - 12.0 °F 39% 29.92 in 10.0 mi Calm Calm - N/A   Clear
4:54 AM 34.0 °F 31.0 °F 14.0 °F 44% 29.92 in 10.0 mi SSE 3.5 mph - N/A   Clear
5:54 AM 34.0 °F - 12.9 °F 42% 29.93 in 10.0 mi Calm Calm - N/A   Clear
6:54 AM 33.1 °F 30.0 °F 14.0 °F 46% 29.94 in 10.0 mi ENE 3.5 mph - N/A   Clear
7:54 AM 36.0 °F - 16.0 °F 44% 29.95 in 10.0 mi Calm Calm - N/A   Clear
8:54 AM 45.0 °F - 17.1 °F 33% 29.92 in 10.0 mi Calm Calm - N/A   Clear
9:54 AM 55.9 °F - 14.0 °F 19% 29.91 in 10.0 mi South 5.8 mph - N/A   Clear
10:54 AM 66.0 °F - 5.0 °F 9% 29.88 in 10.0 mi SSW 6.9 mph - N/A   Clear
11:54 AM 69.1 °F - -2.0 °F 6% 29.87 in 10.0 mi SSW 16.1 mph 21.9 mph N/A   Clear
12:54 PM 69.1 °F - 1.0 °F 7% 29.86 in 10.0 mi WSW 12.7 mph - N/A   Clear
1:54 PM 69.1 °F - 1.0 °F 7% 29.83 in 10.0 mi SSW 12.7 mph - N/A   Clear
2:54 PM 69.1 °F - -2.0 °F 6% 29.84 in 10.0 mi SW 13.8 mph 21.9 mph N/A   Clear
3:54 PM 68.0 °F - -4.0 °F 6% 29.84 in 10.0 mi SW 17.3 mph 24.2 mph N/A   Clear
4:54 PM 64.9 °F - 1.0 °F 8% 29.85 in 10.0 mi SW 17.3 mph 26.5 mph N/A   Clear
5:54 PM 61.0 °F - -0.0 °F 9% 29.88 in 10.0 mi SW 11.5 mph - N/A   Clear
6:54 PM 55.9 °F - 5.0 °F 13% 29.91 in 10.0 mi South 6.9 mph - N/A   Clear
7:54 PM 54.0 °F - 7.0 °F 15% 29.91 in 10.0 mi SSE 5.8 mph - N/A   Clear
8:54 PM 52.0 °F - 8.1 °F 17% 29.91 in 10.0 mi SSE 5.8 mph - N/A   Clear
9:54 PM 48.0 °F - 10.0 °F 22% 29.92 in 10.0 mi Calm Calm - N/A   Clear
10:54 PM 48.9 °F - 10.9 °F 22% 29.89 in 10.0 mi SSE 8.1 mph - N/A   Clear
11:54 PM 48.9 °F - 10.9 °F 22% 29.90 in 10.0 mi SSE 4.6 mph - N/A   Clear